Weather History for 94204 - February, 2013

Change the Weather History Date:

Tuesday, February 26, 2013

  Actual Average Record
Temperature  
Mean Temperature 82 °F -  
Max Temperature 88 °F - - ()
Min Temperature 75 °F - - ()
Cooling Degree Days 16    
Growing Degree Days 32 (Base 50)    
Moisture  
Dew Point 76 °F    
Average Humidity 92    
Maximum Humidity 100    
Minimum Humidity 65    
Precipitation  
Precipitation 1.89 in - - ()
Sea Level Pressure  
Sea Level Pressure 29.54 in    
Wind  
Wind Speed 10 mph ()    
Max Wind Speed 23 mph    
Max Gust Speed 40 mph    
T = Trace of Precipitation, MM = Missing Value Source: Averaged Metar Reports

Daily Weather History Graph

Daily Weather History Graph

Search for Another Location

Airport or City:

Trip Planner

Search our weather history database for the weather conditions in past years. The results will help you decide how hot, cold, wet, or windy it might be!

Date:

Astronomy

Feb. 26, 2013 Rise Set
Actual Time 5:42 AM AWST 6:12 PM AWST
Civil Twilight 5:20 AM AWST 6:34 PM AWST
Nautical Twilight 4:55 AM AWST 6:59 PM AWST
Astronomical Twilight 4:29 AM AWST 7:25 PM AWST
Moon 6:19 PM AWST (2/26) 5:47 AM AWST (2/26)
Length of Visible Light 13h 13m
Length of Day
12h 29m
Full, 100% of the Moon is Illuminated
Feb 26
Full
Mar 5
Last Quarter
Mar 12
New
Mar 20
First Quarter
Mar 27
Full

Hourly Weather History & Observations

Time (AWST) Temp. Heat Index Dew Point Humidity Pressure Visibility Wind Dir Wind Speed Gust Speed Precip Events Conditions
12:00 AM 78 °F - 76 °F 91% 29.57 in - NE 12.7 mph - -  
12:00 AM 78.8 °F - 75.2 °F 89% 29.59 in - NE 12.7 mph - N/A   Unknown
1:00 AM 77.0 °F - 75.2 °F 94% 29.56 in - NE 9.2 mph - N/A   Unknown
2:00 AM 77.0 °F - 77.0 °F 100% 29.53 in - NE 10.4 mph - N/A   Unknown
3:00 AM 77 °F - 76 °F 95% 29.51 in - NE 11.5 mph - -  
3:00 AM 77.0 °F - 75.2 °F 94% 29.50 in - NE 11.5 mph - N/A   Unknown
4:00 AM 77.0 °F - 75.2 °F 94% 29.53 in - NNE 10.4 mph - N/A   Unknown
5:00 AM 78.8 °F - 75.2 °F 89% 29.53 in - NE 12.7 mph 25.3 mph N/A   Unknown
6:00 AM 78 °F - 75 °F 86% 29.53 in - NE 11.5 mph - -  
6:00 AM 77.0 °F - 75.2 °F 94% 29.53 in - NE 11.5 mph - N/A   Unknown
7:00 AM 75.2 °F - 75.2 °F 100% 29.56 in - NE 9.2 mph - N/A   Unknown
8:00 AM 77.0 °F - 77.0 °F 100% 29.56 in - NE 11.5 mph - N/A   Unknown
9:00 AM 80 °F - 77 °F 88% 29.56 in - NE 13.8 mph - -  
9:00 AM 80.6 °F 87.1 °F 77.0 °F 89% 29.56 in - NE 13.8 mph - N/A   Unknown
10:00 AM 84.2 °F 94.1 °F 77.0 °F 79% 29.56 in - NE 15.0 mph 26.5 mph N/A   Unknown
11:00 AM 84.2 °F 96.1 °F 78.8 °F 84% 29.53 in - NNE 12.7 mph 26.5 mph N/A   Unknown
12:00 PM 87 °F - 77 °F 65% 29.52 in - NNE 16.1 mph - -  
12:00 PM 87.8 °F 99.7 °F 77.0 °F 70% 29.53 in - NNE 16.1 mph - N/A   Unknown
1:00 PM 75.2 °F - 73.4 °F 94% 29.53 in - NNW 23.0 mph 40.3 mph N/A   Unknown
2:00 PM 78.8 °F - 77.0 °F 94% 29.53 in - NNE 8.1 mph - N/A   Unknown
3:00 PM 81 °F - 80 °F 95% 29.50 in - NE 8.1 mph - -  
3:00 PM 80.6 °F 89.3 °F 80.6 °F 100% 29.50 in - NE 8.1 mph - N/A   Unknown
4:00 PM 78.8 °F - 75.2 °F 89% 29.50 in - North 8.1 mph - N/A   Unknown
5:00 PM 78.8 °F - 77.0 °F 94% 29.50 in - North 6.9 mph - N/A   Unknown
6:00 PM 76 °F - 74 °F 94% 29.53 in - NNE 8.1 mph - -  
6:00 PM 75.2 °F - 75.2 °F 100% 29.53 in - NNE 8.1 mph - N/A   Unknown
7:00 PM 77.0 °F - 75.2 °F 94% 29.53 in - NNE 9.2 mph - N/A   Unknown
8:00 PM 77.0 °F - 77.0 °F 100% 29.56 in - North 8.1 mph - N/A   Unknown
9:00 PM 76 °F - 75 °F 97% 29.56 in - NE 9.2 mph - -  
9:00 PM 77.0 °F - 75.2 °F 94% 29.56 in - NE 9.2 mph - N/A   Unknown
10:00 PM 77.0 °F - 75.2 °F 94% 29.56 in - NE 9.2 mph - N/A   Unknown
11:00 PM 77.0 °F - 75.2 °F 94% 29.56 in - NNE 8.1 mph - N/A   Unknown